| time (UTC) | temp C | wind direction | speed KPH | gust KPH | rain 1hr cm | rain 24hr cm | rain mn cm | humidity % | barometer mb |
| 20260507122330 | 10 | 81 | 11.3 | 22.5 | 0.00 | 0.00 | 0.00 | 70 | 1025.1 |
| 20260507115330 | 10 | 83 | 9.7 | 24.1 | 0.00 | 0.00 | 0.00 | 70 | 1024.9 |
| 20260507112330 | 10 | 73 | 9.7 | 17.7 | 0.00 | 0.00 | 0.00 | 71 | 1024.7 |
| 20260507105329 | 10 | 80 | 11.3 | 24.1 | 0.00 | 0.00 | 0.00 | 71 | 1024.6 |
| 20260507102330 | 11 | 80 | 12.9 | 25.7 | 0.00 | 0.00 | 0.00 | 70 | 1024.7 |
| 20260507095330 | 11 | 70 | 11.3 | 22.5 | 0.00 | 0.00 | 0.00 | 68 | 1024.5 |
| 20260507085329 | 12 | 69 | 11.3 | 19.3 | 0.00 | 0.00 | 0.00 | 65 | 1024.1 |
| 20260507082329 | 12 | 67 | 11.3 | 22.5 | 0.00 | 0.00 | 0.00 | 63 | 1023.9 |
| 20260507075329 | 13 | 60 | 9.7 | 19.3 | 0.00 | 0.00 | 0.00 | 62 | 1023.8 |
| 20260507072330 | 13 | 81 | 14.5 | 25.7 | 0.00 | 0.00 | 0.00 | 62 | 1023.1 |
| 20260507065329 | 13 | 59 | 11.3 | 19.3 | 0.00 | 0.00 | 0.00 | 63 | 1023.4 |
| 20260507062329 | 14 | 94 | 9.7 | 16.1 | 0.00 | 0.00 | 0.00 | 61 | 1022.3 |
| 20260507055330 | 15 | 128 | 9.7 | 19.3 | 0.00 | 0.00 | 0.00 | 58 | 1021.8 |
| 20260507052329 | 16 | 141 | 12.9 | 24.1 | 0.00 | 0.00 | 0.00 | 56 | 1021.6 |
| 20260507045330 | 16 | 128 | 11.3 | 20.9 | 0.00 | 0.00 | 0.00 | 55 | 1021.2 |
| 20260507035331 | 18 | 121 | 11.3 | 20.9 | 0.00 | 0.00 | 0.00 | 52 | 1020.1 |
| 20260507022329 | 20 | 129 | 9.7 | 17.7 | 0.00 | 0.00 | 0.00 | 43 | 1018.3 |
| 20260507015330 | 21 | 128 | 8.0 | 16.1 | 0.00 | 0.00 | 0.00 | 41 | 1018.0 |
| 20260507012330 | 22 | 137 | 8.0 | 16.1 | 0.00 | 0.00 | 0.00 | 38 | 1017.6 |
| 20260507005329 | 23 | 133 | 9.7 | 20.9 | 0.00 | 0.00 | 0.00 | 37 | 1017.2 |
| 20260507002329 | 23 | 143 | 11.3 | 22.5 | 0.00 | 0.00 | 0.00 | 36 | 1017.0 |
| 20260506235330 | 24 | 133 | 11.3 | 22.5 | 0.00 | 0.00 | 0.00 | 35 | 1016.9 |
| 20260506232330 | 25 | 117 | 14.5 | 25.7 | 0.00 | 0.00 | 0.00 | 35 | 1017.1 |
| 20260506222330 | 26 | 96 | 12.9 | 27.4 | 0.00 | 0.00 | 0.00 | 34 | 1016.6 |
| 20260506215330 | 26 | 98 | 9.7 | 22.5 | 0.00 | 0.00 | 0.00 | 32 | 1016.8 |
| 20260506212330 | 26 | 135 | 6.4 | 16.1 | 0.00 | 0.00 | 0.00 | 32 | 1017.6 |
| 20260506205330 | 25 | 136 | 6.4 | 19.3 | 0.00 | 0.00 | 0.00 | 33 | 1018.0 |
| 20260506202329 | 24 | 83 | 6.4 | 19.3 | 0.00 | 0.00 | 0.00 | 34 | 1018.4 |
| 20260506192330 | 23 | 96 | 8.0 | 14.5 | 0.00 | 0.00 | 0.00 | 40 | 1018.8 |
| 20260506185330 | 22 | 111 | 6.4 | 17.7 | 0.00 | 0.00 | 0.00 | 41 | 1019.3 |
| 20260506182330 | 21 | 116 | 6.4 | 17.7 | 0.00 | 0.00 | 0.00 | 44 | 1019.6 |
| 20260506175330 | 20 | 105 | 6.4 | 19.3 | 0.00 | 0.00 | 0.00 | 47 | 1020.0 |